DECAYED

STARLINK-3654, 52003 (Decayed)

Orbit data source: Space-Track

STARLINK-3654, 52003 was a payload satellite owned by SpaceX/Seattle (US) in LEO that was launched on Wed, 09 Mar 2022 UTC via an FALCON 9 launch vehicle from the Air Force Eastern Test Range (AFETR). Payload-class satellites include a variety of spacecraft equipped with specific instruments for various scientific and technological missions. These include communications satellites like Starlink; space stations such as the ISS; scientific satellites like the Hubble; Earth observation satellites from companies like Planet Labs, Umbra, and HawkEye 360; GPS; miniature CubeSats for education and research; and military/defense satellites.

Not visible in the next 10 days
Identifier
52003, 2022-025AZ
Orbit
Decayed
Country
Flag of USUS
Related business
Manufacturer
SpaceX/Seattle
Mission
Decayed Commercial Communications
Bus & Motor
STARLINK, Unknown motor
Mass
297 kg wet, ~275 kg dry
Launch date (UTC)
2022-03-09 (4 years ago)
Launch vehicle
FALCON 9
Launch site
Air Force Eastern Test Range (AFETR)
Object type
Payload
Rocket body
Debris
Shape & HBR
Box + 1 Pan, 10.1 m
Radar Cross Section
13.562 m², Large (>1 m²)

Expand to show TLE details & history
Last TLE update: 1 year ago

TLE from 1 year ago
0 STARLINK-3654
1 52003U 22025AZ  25048.08577734  .14713020  12527-4  29766-3 0  9993
2 52003  53.1922 276.7798 0008640 269.8234 215.3988 16.46427413164681
Epoch: 2025-02-17T02:03Z
TLE epoch observation values (Epoch: 2025-02-17T02:03:31.162Z)
Latitude
41.02187°
Longitude
-121.74371°
Altitude
157.145 km
Speed
7.815 km/s
True Right ascension
03h 45m 46s
True Declination
40° 50' 09"
Sunlit
Object was in daylight at epoch
Visualization orbit readout
Latitude
Unknown
Longitude
Unknown
Altitude
Unknown
Speed
Unknown
Apparent Right ascension
Unknown
Apparent Declination
Unknown
Sunlit
N/A
Visualization observer readout
Local Sidereal Time
21:34:17
Azimuth
Unknown
Elevation
Unknown
Doppler factor
Unknown
Orbital elements
Apogee altitude
154.663 km
Perigee altitude
143.384 km
Semi-major axis
6,527.161 km
Eccentricity
0.00086
Inclination
53.1922°
RAAN
276.7798°
Arg. of periapsis
269.8234°
True anomaly
215.3415°
Mean anomaly
215.3988°
Eccentric anomaly
215.37014°
Mean motion
4.11582 °/min
Orbital period
87.47 mins
BSTAR
0.00029766
Loading maneuver chart data...
Computing Atmospheric mass density...
Loading historical data...
Loading historical data...
Loading historical data...
Loading historical data...
Loading historical data...
Loading historical data...
Loading historical data...

Documentation

Showing up to 5 results
|